Temp
72 63 60 65 65 64 61 58 57 63 68 63 62 63 68 73 73 73 75 76 77 79 84 85 87 88 87 86 84 82 81 81 81 76 77 81 84 85 84 85 83 83 83 85
65 60 67 68 67 62 60 57 58 63 67 64 62 61 68 71 72 74 75 76 77 79 81 83 85 86 86 85 84 83 82 81 80 76 80 84 86 87 87 87 83 84 85 85
59 64 68 64 62 59 60 58 58 57 61 64 62 60 67 70 72 75 76 77 78 78 79 81 83 84 86 85 84 84 83 81 79 81 76 77 82 86 85 84 83 83 84 84
61 66 61 60 58 61 54 63 60 57 55 51 63 48 62 68 69 71 73 75 76 77 79 81 82 83 84 86 87 86 84 80 76 80 76 77 81 81 86 83 84 81 83 85
58 60 58 56 58 61 56 61 58 57 55 54 56 53 60 67 65 68 70 72 75 78 79 80 82 84 86 87 87 86 84 82 75 77 79 78 81 85 85 82 80 79 83 84
60 68 62 59 61 59 61 58 59 59 56 46 56 55 59 64 65 68 72 74 74 76 77 79 83 85 85 88 88 86 83 81 74 77 77 75 78 82 83 83 79 79 77 79
57 59 61 61 57 61 59 54 40 42 42 43 55 51 57 65 69 69 68 71 74 76 78 79 81 83 83 84 86 85 85 81 76 75 76 79 79 80 78 74 73 70 67 69
45 43 56 60 57 53 54 50 38 30 41 47 56 46 61 67 70 71 72 74 74 74 78 77 79 81 84 84 84 83 83 82 78 76 75 80 81 82 84 79 75 67 69 68
46 45 60 61 61 59 48 45 54 38 45 37 49 57 64 68 67 67 68 70 71 73 74 76 77 79 80 81 81 81 83 82 81 74 73 74 80 80 80 75 71 71 71 69
52 40 55 56 59 60 56 60 42 41 31 34 50 52 55 59 63 66 65 67 70 72 74 75 77 77 78 79 80 79 81 82 81 78 75 72 78 80 74 70 69 66 67 69
55 46 49 55 51 49 48 47 46 46 42 36 40 50 62 59 64 63 67 66 69 70 72 74 76 78 79 80 81 78 78 81 80 78 75 71 72 73 71 71 67 66 66 65
55 47 40 47 58 61 57 50 48 35 39 43 42 43 65 63 65 65 66 68 70 70 72 74 75 77 76 79 80 80 77 81 82 81 77 74 69 71 71 67 66 65 66 67
50 40 33 44 52 52 49 52 52 49 44 35 36 45 64 65 63 65 65 66 66 66 68 70 72 74 75 76 77 78 78 79 82 80 73 73 66 68 66 64 64 66 67 67
51 36 35 33 44 48 41 47 49 39 32 41 43 47 56 59 59 61 61 63 63 61 64 66 69 71 74 75 76 76 77 79 79 79 76 72 67 66 65 65 66 68 70 69
48 34 38 42 46 48 46 45 46 42 43 33 41 42 51 53 56 59 59 58 57 59 61 62 65 69 72 74 74 75 76 77 79 78 77 72 62 62 63 63 63 66 70 69
43 35 38 36 47 49 48 52 51 50 48 46 45 45 56 57 58 56 55 54 54 57 59 62 63 66 68 71 73 74 75 76 79 78 74 67 63 60 60 61 62 60 61 63
34 34 35 38 49 49 40 48 49 49 50 46 39 50 54 52 51 50 50 52 54 56 58 59 62 65 67 70 72 72 73 76 76 76 65 65 62 58 58 58 57 55 54 53
36 33 36 36 44 29 49 52 51 47 48 51 50 51 46 44 47 52 54 52 49 50 54 58 57 63 67 70 71 72 72 73 72 64 63 60 60 56 56 56 54 53 52 50
46 40 33 31 32 43 51 49 44 44 42 51 47 46 45 51 51 47 52 51 47 48 51 54 58 58 64 68 70 71 71 72 60 58 57 58 57 54 54 54 54 51 49 50
52 43 36 34 29 31 48 50 52 52 36 46 46 48 47 43 33 42 52 49 47 49 51 52 55 57 59 66 70 70 68 59 57 57 56 56 56 55 55 54 52 49 52 51
44 44 37 38 33 43 52 52 54 32 38 49 50 46 43 36 39 43 45 46 49 49 51 55 55 56 59 65 68 67 60 56 56 56 55 55 55 54 53 51 50 48 49 50
36 36 38 38 34 31 53 45 36 46 46 46 45 45 41 41 41 42 44 46 48 49 52 54 54 56 62 65 68 60 54 55 56 55 54 52 52 52 52 51 48 51 49 49
36 41 36 40 40 52 53 47 49 46 44 44 44 43 40 39 40 43 44 45 47 49 53 55 57 59 57 61 58 52 53 54 53 51 50 50 50 52 53 57 51 52 53 58
47 51 37 36 46 50 50 49 51 48 44 45 42 41 41 40 42 43 46 49 51 52 55 55 53 51 51 53 53 51 51 52 50 48 48 48 48 49 53 55 60 61 60 58
43 41 38 37 43 43 45 45 43 46 44 42 43 43 42 43 45 45 50 49 50 50 52 51 49 48 48 50 50 51 50 50 48 47 47 47 48 52 54 52 53 54 57 56
44 37 37 36 43 38 39 43 48 41 40 42 42 42 46 46 44 47 48 49 48 48 49 48 47 47 47 48 48 49 49 49 47 46 46 44 49 51 48 46 47 39 40 40
MSLP
1009.99 1010.17 1008.95 1008.53 1008.82 1008.84 1008.74 1008.35 1007.54 1007.10 1006.91 1006.64 1005.69 1004.50 1003.74 1003.70 1003.27 1002.95 1002.67 1002.46 1002.40 1002.26 1002.42 1002.67 1002.80 1002.90 1003.21 1003.67 1004.02 1004.48 1004.89 1005.07 1005.47 1006.01 1006.36 1006.57 1006.62 1007.24 1007.96 1008.41 1008.94 1009.62 1010.01 1010.24
1010.03 1008.96 1008.57 1008.74 1008.81 1008.87 1008.60 1007.99 1007.16 1006.59 1006.38 1006.37 1005.13 1003.23 1002.75 1002.37 1001.93 1001.76 1001.61 1001.39 1001.42 1001.44 1001.68 1001.92 1002.29 1002.34 1002.58 1003.03 1003.55 1003.84 1004.22 1004.61 1004.93 1005.55 1005.57 1005.68 1005.90 1006.61 1007.09 1007.64 1008.66 1009.21 1009.28 1010.08
1009.76 1009.00 1008.95 1008.97 1008.67 1008.45 1007.99 1007.44 1006.92 1006.77 1006.72 1006.06 1004.30 1002.13 1000.39 1000.91 1001.03 1000.84 1000.88 1000.90 1000.83 1000.82 1000.83 1001.11 1001.53 1001.73 1001.92 1002.17 1002.85 1003.14 1003.58 1004.05 1004.58 1004.87 1005.56 1005.98 1006.14 1006.46 1007.15 1007.28 1008.60 1008.59 1008.95 1009.93
1009.90 1009.19 1009.36 1009.14 1008.67 1008.55 1007.65 1007.64 1007.55 1007.14 1006.53 1004.77 1004.40 1001.48 1000.70 1000.11 999.99 1000.04 1000.06 1000.11 1000.24 1000.33 1000.62 1000.73 1000.83 1001.06 1001.39 1001.58 1001.96 1002.49 1003.07 1003.72 1004.55 1004.71 1005.00 1005.27 1005.35 1005.65 1006.09 1006.48 1007.51 1007.99 1009.02 1009.87
1009.92 1009.61 1009.41 1009.12 1008.84 1008.76 1008.12 1008.37 1008.04 1007.26 1006.17 1005.06 1003.75 1002.20 999.98 999.77 999.25 999.62 1000.09 1000.11 1000.03 1000.02 1000.15 1000.19 1000.36 1000.45 1000.83 1001.12 1001.33 1001.87 1002.48 1003.16 1004.19 1004.48 1004.39 1004.96 1004.74 1005.25 1005.93 1007.21 1006.99 1007.33 1008.95 1009.97
1010.62 1010.11 1009.90 1009.53 1009.44 1009.37 1009.11 1008.49 1007.60 1006.53 1005.54 1003.97 1002.00 1001.53 999.56 999.26 999.48 999.66 999.88 999.87 1000.07 1000.04 1000.03 1000.17 1000.10 1000.05 1000.29 1000.56 1000.91 1001.55 1001.97 1002.52 1003.65 1004.10 1004.18 1004.45 1004.30 1004.71 1005.54 1006.19 1006.27 1007.72 1008.60 1010.12
1010.50 1009.75 1009.98 1010.17 1009.21 1008.91 1008.94 1008.34 1007.29 1005.43 1004.56 1003.21 1002.58 1002.15 1000.18 999.85 999.97 1000.11 1000.22 1000.16 1000.02 1000.06 1000.04 999.89 999.92 999.95 1000.17 1000.23 1000.43 1001.27 1001.56 1002.15 1003.11 1003.65 1003.73 1003.81 1004.00 1004.52 1005.43 1005.24 1006.59 1007.98 1008.81 1010.63
1010.71 1009.93 1010.06 1010.20 1009.99 1009.67 1009.31 1009.37 1008.70 1006.91 1004.62 1003.15 1002.50 1001.15 999.56 1000.31 1000.49 1000.64 1000.46 1000.20 1000.38 1000.33 1000.00 1000.15 1000.05 1000.07 1000.00 1000.11 1000.43 1001.00 1001.13 1001.58 1002.63 1003.11 1003.46 1003.27 1003.40 1004.06 1004.24 1004.77 1006.73 1008.07 1008.58 1009.65
1011.41 1010.68 1010.43 1010.19 1009.86 1009.79 1009.40 1009.26 1009.20 1008.74 1007.38 1005.64 1003.13 1000.91 1000.49 1000.06 1000.26 1000.83 1000.74 1000.40 1000.55 1000.69 1000.63 1000.59 1000.57 1000.49 1000.52 1000.56 1000.60 1000.79 1000.87 1001.09 1001.82 1002.79 1003.22 1002.98 1002.72 1003.18 1003.43 1005.46 1006.80 1008.82 1008.83 1010.34
1012.62 1011.39 1010.32 1010.18 1010.39 1009.55 1009.37 1008.97 1009.15 1009.18 1007.23 1004.38 1001.45 1000.11 998.90 999.49 1000.03 1000.40 1000.81 1001.02 1001.27 1001.20 1000.99 1000.97 1000.96 1000.92 1000.99 1000.92 1000.70 1000.91 1000.81 1000.73 1001.51 1002.29 1002.73 1002.90 1002.64 1003.10 1004.51 1005.46 1006.99 1008.52 1010.11 1010.96
1013.15 1012.84 1011.01 1010.45 1009.42 1008.99 1009.87 1009.33 1009.78 1009.32 1008.11 1005.52 1002.74 1000.42 1000.31 1000.46 1000.68 1000.91 1001.05 1001.69 1001.52 1001.67 1001.61 1001.57 1001.35 1001.06 1000.95 1000.74 1000.43 1000.61 1000.79 1000.67 1000.89 1001.84 1002.23 1002.89 1002.92 1003.66 1004.49 1005.70 1007.56 1008.45 1010.25 1011.04
1013.47 1013.24 1011.80 1010.17 1009.10 1008.80 1008.79 1008.81 1009.27 1009.19 1007.39 1006.29 1004.36 1001.55 1001.11 1001.03 1000.99 1001.51 1001.78 1002.01 1002.20 1002.33 1002.03 1001.63 1001.46 1001.22 1001.21 1000.76 1000.44 1000.23 1000.66 1000.47 1000.44 1001.00 1001.76 1002.67 1002.98 1003.39 1004.73 1005.94 1007.25 1008.79 1010.49 1011.77
1014.49 1014.15 1012.71 1009.74 1008.73 1009.27 1008.84 1008.50 1008.63 1008.52 1008.21 1006.68 1005.11 1001.59 1001.56 1001.13 1001.50 1001.82 1002.07 1002.71 1003.03 1003.05 1002.60 1001.98 1001.52 1001.21 1000.99 1000.91 1000.60 1000.33 1000.30 1000.35 1000.28 1000.99 1001.81 1003.13 1003.58 1000.42 1003.66 1004.95 1007.45 1009.51 1010.38 1011.38
1015.01 1014.66 1013.78 1011.78 1009.57 1009.16 1008.92 1008.46 1008.41 1008.94 1007.90 1006.00 1004.09 1002.23 1001.89 1001.53 1001.62 1002.22 1002.87 1003.45 1003.92 1003.77 1003.30 1002.57 1001.74 1001.27 1000.95 1000.83 1000.66 1000.51 1000.24 1000.44 1000.43 1001.09 1001.84 1003.12 1002.81 1003.94 1004.55 1005.46 1008.01 1008.66 1009.60 1011.33
1014.45 1014.28 1013.53 1012.00 1010.53 1009.35 1008.27 1007.59 1007.34 1007.18 1006.70 1006.13 1004.53 1003.75 1003.18 1003.28 1003.05 1002.81 1004.05 1004.73 1004.76 1004.19 1003.59 1002.88 1002.20 1001.47 1000.89 1000.63 1000.64 1000.55 1000.43 1000.45 1000.42 1001.03 1001.89 1003.28 1004.60 1004.97 1005.46 1006.70 1007.98 1008.65 1009.85 1011.19
1015.11 1014.21 1013.30 1011.50 1009.67 1007.90 1006.62 1005.82 1005.59 1005.48 1005.42 1004.85 1004.45 1003.16 1003.12 1003.02 1003.72 1004.07 1004.57 1004.73 1004.61 1004.26 1003.59 1002.88 1002.36 1001.81 1001.29 1000.74 1000.44 1000.29 1000.24 1000.30 1000.32 1000.95 1002.29 1003.95 1004.76 1005.17 1006.83 1007.49 1008.38 1009.92 1011.37 1011.60
1015.17 1014.51 1013.19 1010.10 1008.17 1006.92 1005.49 1004.71 1004.82 1005.12 1005.19 1005.18 1004.51 1003.73 1003.72 1003.69 1003.91 1004.37 1004.89 1005.04 1004.64 1003.96 1003.24 1002.49 1001.86 1001.34 1001.04 1000.55 1000.33 1000.15 1000.37 1000.20 1000.28 1000.96 1003.34 1004.51 1005.78 1005.91 1006.57 1008.55 1009.73 1011.03 1011.70 1012.54
1013.90 1014.01 1013.16 1010.41 1008.22 1006.16 1004.34 1005.21 1005.49 1005.40 1005.37 1005.07 1004.50 1004.38 1005.19 1005.39 1005.12 1004.48 1004.57 1004.68 1004.39 1004.00 1003.10 1002.31 1002.10 1001.19 1000.64 1000.34 1000.23 1000.23 1000.40 1000.50 1000.50 1002.28 1003.76 1004.93 1006.50 1006.00 1008.53 1009.72 1010.96 1011.87 1012.72 1013.64
1012.78 1013.08 1012.36 1010.71 1008.47 1005.95 1003.75 1004.76 1005.74 1005.58 1004.76 1005.17 1004.82 1005.48 1005.56 1004.94 1004.28 1003.19 1004.20 1004.14 1004.01 1003.63 1003.09 1002.32 1001.78 1001.33 1000.59 999.71 1000.03 1000.03 1000.11 1000.20 1001.64 1002.76 1004.16 1005.51 1006.23 1007.74 1009.11 1010.80 1011.94 1012.83 1013.74 1014.86
1011.17 1012.02 1011.70 1010.53 1008.59 1005.70 1004.20 1005.39 1006.30 1006.15 1004.47 1005.36 1005.74 1005.26 1004.96 1005.44 1004.77 1001.46 1003.18 1003.53 1003.43 1002.92 1002.43 1001.80 1001.32 1000.72 1000.20 999.49 999.58 999.87 1000.28 1001.54 1002.30 1003.25 1004.70 1006.06 1006.97 1008.51 1010.44 1011.39 1012.57 1013.76 1014.87 1015.98
1010.05 1010.17 1010.16 1009.25 1008.33 1006.19 1005.48 1006.36 1006.57 1006.40 1005.50 1005.34 1005.55 1005.50 1005.28 1005.19 1004.65 1002.56 1002.76 1001.88 1001.59 1001.02 1000.51 1000.35 1000.05 999.68 999.18 999.23 999.09 999.88 1000.99 1002.27 1003.31 1004.31 1005.73 1007.13 1007.96 1009.94 1011.11 1012.32 1013.40 1014.37 1015.94 1016.95
1010.95 1010.39 1009.50 1009.09 1007.89 1006.32 1006.66 1007.17 1007.14 1006.34 1006.02 1005.98 1005.72 1005.36 1004.82 1004.12 1002.91 1002.08 1000.95 999.82 998.99 998.43 998.37 998.45 998.69 998.53 998.32 998.46 998.64 1000.26 1001.53 1003.31 1004.11 1005.14 1006.76 1008.01 1009.72 1011.09 1012.20 1012.47 1013.88 1015.53 1016.78 1017.46
1010.74 1010.63 1010.53 1010.27 1008.52 1007.09 1007.04 1007.45 1006.93 1007.00 1006.62 1006.15 1005.70 1004.92 1004.32 1003.03 1001.50 1000.12 998.29 997.01 996.23 995.87 995.95 996.64 997.04 997.13 997.38 997.65 999.05 1000.76 1002.40 1003.76 1005.13 1006.30 1008.18 1009.50 1010.91 1012.67 1013.07 1012.93 1014.38 1016.02 1016.93 1017.64
1010.42 1010.24 1010.81 1010.57 1008.17 1007.35 1007.29 1007.30 1007.17 1007.26 1006.95 1006.35 1005.66 1004.37 1003.26 1001.79 1000.07 998.02 996.26 994.85 994.19 992.93 993.69 995.46 996.57 997.48 998.14 998.70 999.98 1001.51 1003.40 1004.46 1005.59 1007.39 1009.54 1010.91 1011.76 1013.21 1013.87 1014.70 1015.32 1016.12 1017.38 1018.36
1011.01 1011.12 1010.30 1009.51 1008.66 1008.27 1007.86 1007.86 1007.72 1007.02 1006.76 1005.99 1004.68 1003.30 1002.09 1000.79 999.01 997.27 995.66 995.61 995.34 994.44 995.12 996.54 997.79 998.71 999.85 1000.53 1001.60 1002.87 1004.09 1005.30 1006.67 1008.62 1010.10 1011.85 1012.80 1013.57 1014.78 1016.12 1017.18 1018.02 1019.16 1019.99
1010.17 1010.05 1009.94 1008.95 1008.81 1008.99 1008.17 1007.87 1007.25 1007.02 1006.19 1005.24 1004.15 1002.15 1001.34 1000.62 999.47 998.05 996.97 997.05 997.27 997.33 997.89 998.72 999.63 1000.41 1001.82 1002.55 1003.72 1004.45 1005.61 1006.31 1007.38 1009.43 1011.03 1012.58 1013.77 1015.16 1016.23 1017.63 1019.26 1021.30 1022.00 1022.33
Wind_Speed
6 10 14 16 13 14 15 18 20 19 16 17 20 24 24 21 21 21 21 20 20 19 18 14 15 13 10 8 9 13 14 15 11 10 12 12 13 12 11 9 13 12 11 12
11 16 14 13 14 15 18 20 21 18 15 17 23 28 24 23 24 24 21 21 20 19 18 17 16 15 11 9 9 11 14 15 13 9 11 11 12 12 11 11 12 14 12 11
16 19 21 19 20 19 19 19 20 20 19 20 22 24 17 4 9 13 15 16 17 19 18 18 17 16 14 11 9 10 13 13 13 17 9 5 8 9 11 12 11 11 12 11
12 6 11 15 18 17 20 16 18 18 17 13 15 12 18 12 12 8 7 10 12 16 17 16 17 18 16 14 10 9 10 12 13 17 13 15 14 12 12 11 12 11 11 12
10 17 14 17 18 16 18 9 14 16 18 21 19 15 7 7 8 6 5 2 8 10 14 18 19 18 17 15 13 10 9 13 12 16 15 12 16 13 11 11 15 13 12 11
14 15 12 10 8 5 7 12 18 21 16 14 15 15 7 4 8 3 10 6 3 3 5 11 15 15 14 15 14 12 11 12 12 17 18 15 15 13 14 15 12 11 10 8
14 8 5 7 11 10 10 13 9 6 6 10 6 9 13 12 15 11 6 6 6 7 9 9 12 14 14 14 14 11 13 13 14 16 17 20 19 16 17 16 12 14 10 8
8 8 4 2 12 19 19 13 7 7 9 13 10 9 1 4 8 7 9 11 6 3 1 4 5 8 9 9 10 10 12 13 15 17 16 18 19 14 13 16 13 8 12 10
12 7 17 22 13 8 1 7 9 6 18 11 10 12 13 8 5 6 6 2 2 1 3 3 4 6 7 8 8 9 12 12 12 14 13 16 18 18 16 16 13 9 12 13
8 20 9 3 8 13 15 7 7 5 6 9 8 12 9 6 1 3 4 2 1 3 5 6 7 7 7 8 6 8 12 12 12 13 15 14 19 18 17 16 15 14 11 17
14 8 9 16 13 10 4 12 8 8 9 8 13 4 8 2 8 5 7 1 6 8 11 12 12 11 10 8 9 4 9 14 12 13 14 15 16 16 17 16 15 16 15 14
6 8 14 21 22 16 16 17 15 9 10 11 15 14 11 5 5 2 4 7 12 16 18 16 16 14 12 12 9 7 7 13 12 11 12 16 14 19 18 16 17 17 17 15
7 5 9 10 6 2 6 10 14 17 16 17 19 13 4 6 8 11 12 13 14 15 18 17 18 16 12 12 10 9 7 11 11 11 10 13 8 9 22 19 17 18 18 19
10 7 16 15 19 18 18 21 20 14 9 19 22 28 23 22 19 16 16 12 16 16 17 18 16 16 15 11 9 9 7 10 9 11 13 14 9 12 10 24 21 21 21 21
4 6 13 21 24 24 25 26 24 24 24 20 23 29 26 25 26 15 11 14 16 17 18 18 17 15 15 12 9 9 6 8 12 12 14 12 13 12 19 18 19 19 21 21
1 6 9 14 24 24 23 25 23 21 24 26 27 30 23 16 8 13 16 15 16 20 22 21 20 19 16 14 11 8 6 7 12 14 16 17 18 16 12 19 19 19 18 21
4 3 4 16 15 19 18 10 7 14 16 14 17 21 21 21 21 16 17 17 22 25 23 21 19 17 16 14 12 9 6 8 13 15 17 17 19 21 14 18 19 19 20 19
5 3 4 11 15 9 2 6 9 15 15 18 19 22 12 14 17 22 18 24 21 20 19 17 14 16 14 15 13 10 6 9 9 14 17 18 19 23 12 19 19 18 17 18
15 6 5 5 8 20 15 4 5 11 21 23 15 9 14 20 25 25 17 15 15 17 16 14 16 14 19 14 12 11 8 6 15 17 18 16 19 23 19 20 19 17 18 16
12 14 7 5 9 10 10 2 5 14 21 4 8 21 26 19 15 21 17 16 18 21 18 18 21 18 15 16 12 11 8 14 17 19 19 18 20 22 20 20 19 18 15 16
7 8 11 12 9 12 13 9 13 11 8 22 26 25 23 19 17 30 23 26 24 20 20 20 17 16 16 16 16 13 15 16 17 20 20 19 19 20 19 20 17 19 17 16
5 6 6 5 6 6 9 13 7 15 20 23 22 23 23 23 26 25 26 25 23 22 20 20 16 16 18 19 14 12 17 18 20 22 21 21 20 15 16 23 19 18 17 17
5 5 5 6 9 23 21 19 16 13 19 22 23 23 23 25 27 28 28 26 23 23 19 15 17 15 9 15 18 22 21 21 22 25 21 20 20 16 17 20 21 14 14 14
7 8 5 5 12 17 19 20 12 20 21 23 21 24 24 25 26 28 23 15 2 7 14 13 17 17 17 21 23 24 22 24 25 25 23 20 21 19 17 13 13 14 13 12
8 4 6 10 18 13 12 14 19 21 20 20 22 23 23 22 18 19 10 13 12 17 21 19 17 18 18 21 24 23 23 25 26 23 21 20 17 18 18 15 11 12 12 9
5 5 4 8 14 9 12 17 21 19 20 21 22 23 18 12 15 10 13 13 13 17 19 18 19 20 19 21 20 22 22 25 28 24 18 16 16 15 16 16 19 28 25 25
Wind_Direction
291 274 274 297 302 293 295 287 286 287 297 290 282 281 281 274 265 262 257 251 252 248 245 236 233 239 244 232 240 223 217 219 205 203 188 190 189 184 178 174 167 173 173 176
258 255 279 303 286 279 279 281 281 288 292 299 294 284 285 274 265 261 258 255 248 249 241 230 234 231 238 245 242 226 224 212 205 194 196 203 191 187 181 167 170 177 172 175
292 286 293 284 279 276 273 279 294 299 303 280 274 287 266 207 242 248 254 255 254 251 244 232 228 230 236 238 234 232 220 216 212 199 195 178 189 179 183 158 175 165 166 182
287 306 294 281 279 283 283 291 305 291 284 288 324 289 294 301 283 284 270 243 244 236 235 240 233 227 232 236 232 231 218 198 202 217 184 184 187 179 185 163 166 150 168 180
272 313 305 299 294 297 287 317 286 287 280 284 272 257 292 214 278 112 63 338 249 243 240 230 227 230 231 244 236 221 214 202 186 205 207 192 204 181 170 172 153 141 158 170
283 294 293 298 300 296 318 271 289 269 261 266 268 240 275 274 3 312 330 279 234 303 236 239 246 236 234 241 243 231 212 197 183 200 204 196 188 181 170 170 142 149 136 159
317 309 316 275 284 207 243 303 302 279 180 250 94 288 269 295 300 311 310 314 297 244 258 245 221 223 227 237 232 237 220 203 188 204 205 199 188 187 173 149 148 147 119 134
345 315 359 34 305 302 292 287 264 302 294 317 309 261 20 297 321 308 299 279 275 261 252 263 276 268 263 244 253 224 232 216 194 202 209 210 192 185 174 160 158 147 147 141
316 293 311 286 303 254 286 226 273 279 256 260 237 248 233 244 224 87 21 52 142 320 324 328 319 292 297 293 268 246 235 220 210 200 206 212 193 179 157 151 136 155 130 127
310 308 301 346 290 253 249 299 248 226 266 267 266 290 264 165 80 104 100 95 156 295 313 322 312 314 320 301 290 273 245 228 210 209 215 215 191 177 150 140 137 128 139 144
299 267 275 296 273 270 234 245 245 275 273 272 291 302 53 291 295 325 312 279 312 318 307 314 314 318 315 303 284 274 247 236 215 210 212 214 192 163 140 139 144 135 146 138
347 295 287 283 284 276 265 250 250 249 253 251 282 277 304 314 294 23 259 268 300 313 303 296 297 298 304 300 287 277 246 243 216 209 208 211 184 159 153 140 133 129 138 141
2 257 299 287 148 114 266 246 251 256 266 252 268 264 216 221 224 272 314 309 312 300 300 294 288 287 293 297 294 289 272 239 209 201 190 182 200 157 146 115 128 147 141 137
278 213 237 261 289 302 274 265 263 248 249 262 252 273 271 283 295 312 313 323 308 312 297 295 290 277 275 279 282 295 280 245 184 202 170 180 158 159 161 138 151 141 136 137
219 250 241 249 266 278 279 279 275 267 262 255 281 283 287 291 288 306 319 303 293 288 285 285 285 284 275 263 266 280 262 242 185 200 169 151 96 128 142 127 129 129 129 125
359 270 274 267 261 258 277 280 276 272 271 261 264 268 270 270 313 291 300 286 288 285 282 279 275 274 269 265 258 265 271 241 194 192 167 132 113 113 130 119 116 112 113 114
242 253 270 286 304 301 287 298 254 268 280 289 281 293 306 311 311 296 289 283 289 288 280 274 274 266 262 257 256 258 263 258 205 182 129 133 124 110 127 117 117 113 109 100
208 220 259 283 303 273 354 219 286 287 281 279 289 300 331 310 293 280 290 295 287 280 271 262 268 286 252 250 251 254 248 253 175 132 127 127 125 106 141 118 115 110 105 104
216 236 266 273 290 280 287 90 256 312 296 285 295 303 288 287 309 286 275 276 263 261 271 274 272 279 280 247 237 233 234 224 135 132 129 131 129 122 120 126 119 111 104 103
215 220 235 291 287 295 347 99 279 314 285 79 291 306 314 316 287 287 307 295 278 271 265 262 262 258 252 249 237 221 204 142 138 134 128 125 122 124 134 121 115 105 103 102
281 268 255 272 269 274 37 7 309 279 338 314 318 310 305 292 271 285 290 284 274 269 266 256 249 242 237 234 223 203 149 141 131 126 123 119 113 124 123 116 114 106 105 105
269 299 289 275 264 271 350 317 253 318 306 302 303 302 297 288 286 286 282 274 270 266 255 243 230 229 222 221 194 161 132 130 127 119 117 116 119 117 124 117 108 105 109 105
263 230 283 291 288 299 315 300 298 309 307 309 304 303 295 292 291 290 284 280 271 256 247 214 216 208 174 182 141 127 128 127 121 114 113 109 110 123 122 115 113 120 115 117
267 326 254 290 251 288 321 314 310 316 307 308 297 292 292 291 290 288 288 285 306 253 158 148 124 120 115 121 121 118 124 123 117 114 115 114 111 113 106 105 110 116 112 112
269 282 242 252 281 298 272 311 305 308 310 302 296 297 299 301 312 313 79 65 51 70 94 103 110 104 109 114 115 119 121 122 115 113 111 112 112 112 101 79 81 89 73 88
219 233 247 276 318 295 300 309 316 315 308 304 305 304 314 352 339 1 62 79 86 89 95 95 103 105 106 106 109 115 121 123 119 114 110 111 112 109 97 97 87 61 74 68